Weather History for Kirksville, MO

Change the Weather History Date:

Thursday, March 14, 2013

  Actual Average Record
Temperature  
Mean Temperature 42 °F 40 °F  
Max Temperature 59 °F 50 °F 80 °F (2012)
Min Temperature 25 °F 30 °F 6 °F (1993)
Degree Days  
Heating Degree Days 23 25  
Month to date heating degree days 490 389  
Since 1 July heating degree days 4870 4922  
Cooling Degree Days 0 0  
Month to date cooling degree days 0 0  
Year to date cooling degree days 0 0  
Moisture  
Dew Point 28 °F    
Average Humidity 65    
Maximum Humidity 89    
Minimum Humidity 40    
Precipitation  
Precipitation T in 0.09 in 1.10 in (1922)
Month to date precipitation 2.63 1.16  
Year to date precipitation 8.08 3.96  
Sea Level Pressure  
Sea Level Pressure 30.19 in    
Wind  
Wind Speed 6 mph (South)    
Max Wind Speed 16 mph    
Max Gust Speed 21 mph    
Visibility 10 miles    
Events      
T = Trace of Precipitation, MM = Missing Value Source: NWS Daily Summary

Daily Weather History Graph

Daily Weather History Graph

Search for Another Location

Airport:

Trip Planner

Search our weather history database for the weather conditions in past years. The results will help you decide how hot, cold, wet, or windy it might be!

Date:

Astronomy

Mar. 14, 2013 Rise Set
Actual Time 7:22 AM CDT 7:16 PM CDT
Civil Twilight 6:55 AM CDT 7:43 PM CDT
Nautical Twilight 6:24 AM CDT 8:14 PM CDT
Astronomical Twilight 5:52 AM CDT 8:46 PM CDT
Moon 8:36 AM CDT (3/14) 10:33 PM CDT (3/14)
Length of Visible Light 12h 47m
Length of Day
11h 53m
Waxing Crescent, 9% of the Moon is Illuminated
Mar 14
Waxing Crescent
Mar 19
First Quarter
Mar 27
Full
Apr 2
Last Quarter
Apr 10
New

Hourly Weather History & Observations

Time (CDT) Temp. Windchill Dew Point Humidity Pressure Visibility Wind Dir Wind Speed Gust Speed Precip Events Conditions
12:55 AM 27.0 °F 21.6 °F 19.9 °F 75% 30.38 in 10.0 mi SSE 4.6 mph - N/A   Clear
1:55 AM 28.0 °F 21.7 °F 21.0 °F 75% 30.37 in 10.0 mi South 5.8 mph - N/A   Mostly Cloudy
2:55 AM 26.1 °F 19.4 °F 21.0 °F 81% 30.33 in 10.0 mi SSE 5.8 mph - N/A   Clear
3:55 AM 25.0 °F 17.1 °F 19.0 °F 78% 30.31 in 10.0 mi South 6.9 mph - N/A   Clear
4:55 AM 28.9 °F 22.8 °F 21.9 °F 75% 30.30 in 10.0 mi South 5.8 mph - N/A   Clear
5:55 AM 30.0 °F 22.4 °F 21.9 °F 72% 30.28 in 10.0 mi South 8.1 mph - N/A   Scattered Clouds
6:55 AM 30.9 °F 23.5 °F 24.1 °F 76% 30.27 in 10.0 mi SSE 8.1 mph - N/A   Overcast
7:55 AM 30.9 °F 23.5 °F 23.0 °F 72% 30.25 in 10.0 mi South 8.1 mph - N/A   Mostly Cloudy
8:55 AM 33.1 °F 24.9 °F 26.1 °F 75% 30.23 in 10.0 mi SSE 10.4 mph - 0.00 in   Mostly Cloudy
9:55 AM 37.9 °F 30.0 °F 25.0 °F 60% 30.21 in 10.0 mi South 12.7 mph - 0.00 in   Overcast
10:55 AM 42.1 °F 35.7 °F 26.1 °F 53% 30.18 in 10.0 mi South 11.5 mph - 0.00 in   Partly Cloudy
11:55 AM 48.0 °F - 27.0 °F 44% 30.16 in 10.0 mi SSW 12.7 mph 19.6 mph N/A   Clear
12:55 PM 48.9 °F - 28.9 °F 46% 30.13 in 10.0 mi SW 10.4 mph - N/A   Clear
1:55 PM 52.0 °F - 32.0 °F 47% 30.11 in 10.0 mi SW 8.1 mph 17.3 mph N/A   Clear
2:55 PM 55.9 °F - 34.0 °F 44% 30.09 in 10.0 mi Variable 6.9 mph - N/A   Clear
3:55 PM 57.0 °F - 35.1 °F 44% 30.09 in 10.0 mi SW 6.9 mph - N/A   Clear
4:55 PM 59.0 °F - 36.0 °F 42% 30.09 in 10.0 mi West 5.8 mph - N/A   Clear
5:55 PM 57.9 °F - 37.0 °F 46% 30.09 in 10.0 mi West 4.6 mph - N/A   Clear
6:55 PM 57.0 °F - 36.0 °F 45% 30.10 in 10.0 mi Calm Calm - N/A   Clear
7:55 PM 44.1 °F - 35.1 °F 71% 30.11 in 10.0 mi Calm Calm - N/A   Clear
8:55 PM 39.9 °F - 34.0 °F 79% 30.12 in 10.0 mi Calm Calm - N/A   Clear
9:55 PM 42.1 °F 39.2 °F 35.1 °F 76% 30.12 in 10.0 mi NE 4.6 mph - N/A   Clear
10:55 PM 34.0 °F - 30.0 °F 85% 30.13 in 10.0 mi Calm Calm - N/A   Clear
11:55 PM 34.0 °F 29.8 °F 30.9 °F 89% 30.12 in 10.0 mi North 4.6 mph - N/A   Clear